#timestamp,LO_Frequency,Hit,StdDev 
1629244815.7,286047000.6,N
1629244835.5,286047000.2,N
1629244855.4,286047000.3,N
1629244875.2,286047000.3,N
1629244895.1,286047000.5,N
1629244896.0,286047000.5,N
1629244915.8,286047000.4,N
1629244935.6,286047001.0,N
1629244955.5,286047000.0,N
1629244975.3,286046999.7,N
1629244995.1,286047000.4,N
1629245015.9,286047000.0,N
1629245035.7,286047000.1,N
1629245055.6,286046999.7,N
1629245075.4,286047000.1,N
1629245095.2,286046999.7,N
1629245115.1,286047002.7,Y
1629245116.0,286047002.7,P
1629245135.8,286047000.2,N
1629245155.6,286047000.6,N
1629245175.5,286047002.4,N
1629245195.3,286046999.7,N
1629245215.2,286047002.3,N
1629245235.9,286047000.5,N
1629245255.7,286047000.1,N
1629245275.6,286047002.7,N
1629245295.4,286046999.7,N
1629245315.3,286047000.0,N
1629245335.1,286047000.2,N
1629245336.0,286047000.2,N
1629245355.8,286046999.8,N
1629245375.7,286047000.1,N
1629245395.5,286047000.1,N
1629245415.3,286047000.4,N
1629245435.2,286047002.6,N
1629245455.0,286047002.5,N
1629245455.9,286047002.5,N
1629245475.8,286047002.3,N
1629245495.6,286047002.8,N
1629245515.4,286047002.6,N
1629245535.3,286047002.1,N
1629245555.1,286047002.5,N
1629245575.8,286047002.6,N
1629245595.7,286047002.6,N
1629245615.5,286047002.5,N
1629245635.4,286047002.5,N
1629245655.2,286047001.5,N
1629245675.0,286047004.4,Y
1629245675.9,286047004.4,P
1629245695.8,286046999.9,N
1629245715.6,286047002.6,N
1629245735.4,286047000.1,N
1629245755.3,286047002.7,N
1629245775.1,286047002.8,N
1629245795.9,286047000.3,N
1629245815.7,286047000.1,N
1629245835.5,286047002.7,N
1629245855.4,286047001.6,N
1629245875.2,286047002.3,N
1629245895.0,286047002.0,N
1629245895.9,286047002.0,N
1629245915.8,286047002.5,N
1629245935.6,286047002.4,N
1629245955.5,286047002.8,N
1629245975.3,286046999.7,N
1629245995.1,286047002.4,N
1629246015.9,286047002.6,N
1629246035.7,286047001.8,N
1629246055.5,286047001.5,N
1629246075.4,286047001.6,N
1629246095.2,286047001.8,N
1629246115.1,286047002.4,N
1629246116.0,286047002.4,N
1629246135.8,286047001.3,N
1629246155.6,286047002.1,N
1629246175.5,286047001.4,N
1629246195.3,286047004.4,Y
1629246215.1,286046999.8,P
1629246235.9,286047002.7,N
1629246255.7,286047002.3,N
1629246275.6,286047002.3,N
1629246295.4,286047002.2,N
1629246315.2,286047000.2,N
1629246335.1,286047002.8,N
1629246336.0,286047002.8,N
1629246355.8,286047000.6,N
1629246375.6,286047001.0,N
1629246395.5,286046999.8,N
1629246415.3,286046999.8,N
1629246435.2,286047001.1,N
1629246455.9,286046999.8,N
1629246475.7,286047000.0,N
1629246495.6,286047000.4,N
1629246515.4,286047000.6,N
1629246535.2,286047000.6,N
1629246555.1,286047000.6,N
1629246556.0,286047000.6,N
1629246575.8,286047000.3,N
1629246595.7,286047000.0,N
1629246615.5,286047002.8,N
1629246635.3,286046999.7,N
1629246655.2,286047000.5,N
1629246675.0,286047000.5,N
1629246675.9,286047000.5,N
1629246695.8,286047000.5,N
1629246715.6,286046999.9,N
1629246735.4,286047000.9,N
1629246755.3,286047002.4,N
1629246775.1,286047000.0,N
1629246795.9,286046999.7,N
1629246815.7,286047002.6,N
1629246835.5,286047000.0,N
1629246855.4,286047000.1,N
1629246875.2,286047000.5,N
1629246895.0,286047001.0,N
1629246896.0,286047001.0,N
1629246915.8,286047001.2,N
1629246935.6,286046998.6,N
1629246955.5,286046998.2,N
1629246975.3,286046999.0,N
1629246995.1,286046999.3,N
1629247015.9,286046999.4,N
1629247035.7,286046999.2,N
1629247055.5,286046999.2,N
1629247075.4,286046996.7,Y
1629247095.2,286046997.8,P
1629247115.1,286046998.0,N
1629247116.0,286046998.0,N
1629247135.8,286046997.5,N
1629247155.6,286046997.9,N
1629247175.5,286046995.4,Y
1629247195.3,286046997.3,P
1629247215.2,286046997.7,P
1629247235.9,286046997.6,P
1629247255.7,286046995.4,Y
1629247275.6,286046999.6,P
1629247295.4,286046999.4,N
1629247315.3,286046999.6,N
1629247335.1,286046996.8,Y
1629247336.0,286046996.8,P
1629247355.8,286046996.6,P
1629247375.7,286046997.0,N
1629247395.5,286046996.5,Y
1629247415.4,286047000.9,P
1629247435.2,286046998.6,N
1629247455.0,286047001.2,N
1629247455.9,286047001.2,N
1629247475.8,286046999.0,N
1629247495.6,286046998.3,N
1629247515.4,286046999.5,N
1629247535.3,286046996.5,N
1629247555.1,286046998.7,N
1629247575.9,286046999.5,N
1629247595.7,286046996.9,N
1629247615.5,286046997.0,N
1629247635.4,286046999.5,N
1629247655.2,286046999.6,N
1629247675.0,286046999.5,N
1629247675.9,286046999.5,N
1629247695.8,286046999.1,N
1629247715.6,286046999.3,N
1629247735.4,286046999.3,N
1629247755.3,286046998.7,N
1629247775.1,286047001.1,N
1629247795.9,286047000.8,N
1629247815.7,286046998.1,N
1629247835.5,286046999.3,N
1629247855.4,286046999.2,N
1629247875.2,286046999.4,N
1629247895.1,286046999.5,N
1629247896.0,286046999.5,N
1629247915.8,286046999.3,N
1629247935.6,286046998.8,N
1629247955.5,286046998.7,N
1629247975.3,286046998.6,N
1629247995.1,286047001.2,N
1629248015.9,286046998.5,N
1629248035.7,286046998.1,N
1629248055.6,286047000.8,N
1629248075.4,286047000.7,N
1629248095.2,286047000.9,N
1629248115.1,286046998.1,N
1629248116.0,286046998.1,N
1629248135.8,286047001.0,N
1629248155.7,286047000.8,N
1629248175.5,286046998.2,N
1629248195.3,286046998.2,N
1629248215.2,286047000.5,N
1629248235.0,286047000.7,N
1629248235.9,286047000.7,N
1629248255.8,286047000.5,N
1629248275.6,286046999.9,N
1629248295.4,286047000.3,N
1629248315.3,286047001.0,N
1629248335.1,286047000.0,N
1629248355.9,286047000.9,N
1629248375.7,286047000.0,N
1629248395.5,286047000.1,N
